Hourly Data Report for July 16, 2020

OTTAWA INTL A
ONTARIO
Current Station Operator: NAVCAN

45°19'00.000" N
75°40'00.000" W
114.90 m
6106001
71628
YOW

Download Data

Hourly Data (July 2020)
Hourly Data Report for July 16, 2020
TIME Temp Definition
°C
Dew Point Definition
°C
Rel Hum Definition
%
Wind Dir Definition
10's deg

Wind Spd Definition
km/h
Visibility Definition
km
Stn Press Definition
kPa
Hmdx Definition


Wind Chill Definition


Weather Definition


00:00 18.5 14.8 79 6 15 24.1 100.71     LegendNANA
01:00 18.0 15.1 83 7 12 24.1 100.71     Mostly Cloudy
02:00 17.4 15.1 86 7 13 24.1 100.67     LegendNANA
03:00 17.2 15.2 87 8 11 24.1 100.62     LegendNANA
04:00 17.1 15.3 89 8 10 24.1 100.63     Mostly Cloudy
05:00 17.2 15.6 90 9 9 24.1 100.66     LegendNANA
06:00 19.7 16.5 81 12 14 24.1 100.65     LegendNANA
07:00 21.4 17.7 79 13 11 24.1 100.64 27   Mostly Cloudy
08:00 23.9 19.0 74 18 12 24.1 100.64 31   LegendNANA
09:00 26.3 19.1 64 17 22 24.1 100.61 33   LegendNANA
10:00 27.4 19.1 60 18 19 24.1 100.60 34   Mostly Cloudy
11:00 26.4 19.3 65 17 17 24.1 100.55 33   LegendNANA
12:00 26.2 19.2 65 18 17 24.1 100.57 33   LegendNANA
13:00 26.6 19.5 65 16 16 24.1 100.54 34   Cloudy
14:00 24.7 20.5 77 17 16 24.1 100.51 33   Rain Showers
15:00 24.6 20.9 80 16 19 24.1 100.45 33   LegendNANA
16:00 24.0 20.5 80 20 16 24.1 100.46 32   Cloudy
17:00 23.4 19.7 80 20 25 24.1 100.42 31   LegendNANA
18:00 23.6 19.6 78 19 25 24.1 100.38 31   LegendNANA
19:00 22.9 19.6 82 16 14 24.1 100.34 30   Cloudy
20:00 22.4 19.7 85 17 15 24.1 100.31 30   LegendNANA
21:00 22.2 19.3 84 17 14 24.1 100.30 29   LegendNANA
22:00 21.9 19.1 84 17 15 24.1 100.23 29   Mostly Cloudy
23:00 21.7 18.6 82 15 13 24.1 100.20 28   LegendNANA

Notes on Data Quality.

Legend

  • E = Estimated
  • M = Missing
  • NA = Not Available*
  • [empty] = Indicates an unobserved value
Date modified: